Regional Weather Roundup
Issued by NWS

Home | Current Version | Previous Version | Text Only | Print | Product List | Glossary Off
Versions: 1 2 3 4 5 6 7 8 9 10 11 12 13 14 15 16 17 18 19 20 21 22 23 24 25 26 27 28 29 30 31 32 33 34 35 36 37 38 39 40 41 42 43 44 45 46 47 48 49 50

000
ASUS43 KLOT 201308
RWRIL

ILLINOIS REGIONAL WEATHER ROUNDUP
NATIONAL WEATHER SERVICE CHICAGO/ROMEOVILLE IL
700 AM CST SAT JAN 20 2018

NOTE: "FAIR" INDICATES FEW OR NO CLOUDS BELOW 12,000 FEET WITH NO
SIGNIFICANT WEATHER AND/OR OBSTRUCTIONS TO VISIBILITY.

* THESE STATIONS ARE NOT UNDER NWS QUALITY CONTROL. THEY ALSO MAY NOT
  REPORT WEATHER SUCH AS PRECIPITATION OR FOG.

ILZ001-002-007-009-015-016-024-201400-
NORTHWEST ILLINOIS

CITY           SKY/WX    TMP DP  RH WIND       PRES   REMARKS
MOLINE         FAIR      31  27  85 CALM      29.87R
STERLING*      FAIR      32  28  85 SW3       29.88R
SAVANNA*       FAIR      29  26  89 CALM      29.87R
$$

ILZ003-004-008-010-011-017-018-201400-
NORTH CENTRAL ILLINOIS

CITY           SKY/WX    TMP DP  RH WIND       PRES   REMARKS
ROCKFORD       FAIR      28  24  85 S6        29.88R WCI  22
FREEPORT*      FAIR      30  26  85 SW7       29.86F WCI  23
ROCHELLE*      FAIR      30  28  93 CALM      29.88R
DE KALB*       FAIR      34  28  79 SW8       29.87S WCI  28
PERU*          FAIR      33  27  79 SW10      29.90R WCI  25
$$

ILZ005-006-012>014-019>023-201400-
NORTHEAST ILLINOIS

CITY           SKY/WX    TMP DP  RH WIND       PRES   REMARKS
CHICAGO-OHARE  MOCLDY    33  26  75 SW6       29.87R WCI  28
CHICAGO-MIDWAY MOCLDY    33  27  78 SW8       29.89R WCI  26
AURORA         FAIR      29  25  85 S6        29.88R WCI  23
LANSING*       FAIR      29  27  92 S8        29.91R WCI  21
JOLIET*        FAIR      33  28  83 S8        29.90S WCI  26
WAUKEGAN       FAIR      35  28  75 SW5       29.85R WCI  31
DUPAGE AIRPORT FAIR      27  25  92 S5        29.87R WCI  22
KANKAKEE*      FAIR     N/A N/A N/A SW10      29.94R
WHEELING       FAIR      35  27  72 CALM      29.89R
MORRIS*        FAIR      31  26  84 SW7       29.90R WCI  24
ROMEOVILLE*    FAIR      31  27  86 SW10      29.89R WCI  22
NORTHERLY ISL    N/A     35  26  70 SW3         N/A
$$

LMZ740>746-201400-
SOUTHERN LAKE MICHIGAN

STATION/POSITION SKY/WX   TEMP    WIND        PRES    VSBY  WAVE
                          AIR SEA DIR/SP/G                  HT/PER
                          (F)     (DEG/KT/KT) (MB)    (MI)  (FT/S)
HARRISON CRIB              38     220/ 13/ 15   N/A
BURNHAM HARBOR             35     210/  5/  8   N/A
CALUMET HARBOR             33     200/  9/ 13 1011.4R
BURNS HARBOR               35     200/ 16/ 20 1012.9R
MICHIGAN CITY              35     190/ 12/ 15   N/A
$$

ILZ025>027-034>036-040-047-049-050-058-095>099-201400-
WEST-CENTRAL ILLINOIS

CITY           SKY/WX    TMP DP  RH WIND       PRES   REMARKS
QUINCY         CLOUDY    34  30  85 S9        29.91R WCI  27
GALESBURG*     FAIR      32  30  93 S9        29.90S WCI  24
MACOMB*        CLOUDY    36  31  83 SW8       29.92S WCI  29
JACKSONVILLE*  PTCLDY    32  28  83 S8        29.94S WCI  25
PITTSFIELD*    CLOUDY    37  32  81 SW5       29.94S WCI  34
$$

ILZ028>032-037-038-041>044-048-051>054-059>061-201400-
CENTRAL ILLINOIS

CITY           SKY/WX    TMP DP  RH WIND       PRES   REMARKS
PONTIAC        FAIR      33  31  93 SW9       29.93R WCI  25
BLOOMINGTON    FAIR      30  27  88 S12       29.94R WCI  20
DECATUR        FAIR      32  28  85 SW14      29.97R WCI  22
PEORIA         FAIR      29  25  85 S6        29.92R WCI  23
LACON*         FAIR      33  28  80 SW7       29.90R WCI  27
LINCOLN*       FAIR      31  29  91 S5        29.95R WCI  27
SPRINGFIELD    FAIR      34  28  79 S12       29.96R WCI  25
TAYLORVILLE    FAIR      30  27  87 S10       29.98R WCI  21
$$

ILZ033-039-045-046-055>057-062-063-201400-
EAST-CENTRAL ILLINOIS

CITY           SKY/WX    TMP DP  RH WIND       PRES   REMARKS
CHAMPAIGN      FAIR      29  26  89 S13       29.97R WCI  19
DANVILLE*      FAIR      30  25  82 SW10      29.95S WCI  21
RANTOUL*       FAIR      34  30  86 SW12      29.96R WCI  25
MATTOON        FAIR      31  26  82 S10       29.99R WCI  22
PARIS*         FAIR      31  27  83 SW14      30.01S WCI  21
$$

ILZ079-100>102-201400-
SOUTHWEST ILLINOIS

CITY           SKY/WX    TMP DP  RH WIND       PRES   REMARKS
ALTON          PTCLDY    32  28  86 S10       30.00S WCI  24
BELLEVILLE     FAIR      29  23  79 S7        30.01R WCI  22
CAHOKIA*       FAIR      32  26  78 SE7       30.00R WCI  26
SPARTA*        FAIR      33  26  76 S9G16     30.04S WCI  25
$$

ILZ064>066-069>071-074>076-080>082-084>086-088>090-092>094-201400-
SOUTH-CENTRAL ILLINOIS

CITY           SKY/WX    TMP DP  RH WIND       PRES   REMARKS
CARBONDALE     FAIR      36  25  64 SW13      30.07S WCI  27
CAIRO*         FAIR      32  22  67 SE3       30.13S
EFFINGHAM*     FAIR      33  27  78 S7        30.04S WCI  27
MARION         PTCLDY    32  23  69 S12       30.09R WCI  23
MT. VERNON     FAIR      30  25  81 SW7       30.06S WCI  23
CENTRALIA*     FAIR      34  28  77 S9        30.04R WCI  26
SALEM*         FAIR      35  27  73 S9        30.04R WCI  27
METROPOLIS*    FAIR      35  21  56 S3        30.15R
$$

ILZ067-068-072-073-078-083-087-091-201400-
SOUTHEAST ILLINOIS

CITY           SKY/WX    TMP DP  RH WIND       PRES   REMARKS
LAWRENCEVILLE  FAIR      23  17  78 S8        30.08R WCI  14
FLORA*         FAIR      33  27  76 S9        30.06R WCI  26
FAIRFIELD*     FAIR      31  24  74 S6        30.07R WCI  25
HARRISBURG*    FAIR      36  24  62 SW8       30.10R WCI  29
ROBINSON*      FAIR      33  25  72 SW9G16    30.06S WCI  25
CARMI*         FAIR      31  22  69 S7        30.09R WCI  24
$$

ABBREVIATIONS USED IN REMARKS
   TC - TEMPERATURE IN CELSIUS
  WCI - WIND CHILL INDEX
   HX - HEAT INDEX
  VSB - VISIBILITY
$$




USA.gov is the U.S. government's official web portal to all federal, state and local government web resources and services.